Year,Month,Day,Hour,Minute,Value (Times are PST for temperature in C)
2016,08,17,00,00,15.80
2016,08,17,00,01,15.80
2016,08,17,00,02,15.80
2016,08,17,00,03,15.80
2016,08,17,00,04,15.80
2016,08,17,00,05,15.80
2016,08,17,00,06,15.80
2016,08,17,00,07,15.70
2016,08,17,00,08,15.70
2016,08,17,00,09,15.70
2016,08,17,00,10,15.70
2016,08,17,00,11,15.70
2016,08,17,00,12,15.70
2016,08,17,00,13,15.70
2016,08,17,00,14,15.70
2016,08,17,00,15,15.70
2016,08,17,00,16,15.70
2016,08,17,00,17,15.70
2016,08,17,00,18,15.70
2016,08,17,00,19,15.70
2016,08,17,00,20,15.80
2016,08,17,00,21,15.80
2016,08,17,00,22,15.80
2016,08,17,00,23,15.80
2016,08,17,00,24,15.80
2016,08,17,00,25,15.80
2016,08,17,00,26,15.90
2016,08,17,00,27,15.90
2016,08,17,00,28,15.90
2016,08,17,00,29,15.90
2016,08,17,00,30,16.00
2016,08,17,00,31,16.00
2016,08,17,00,32,16.10
2016,08,17,00,33,16.10
2016,08,17,00,34,16.10
2016,08,17,00,35,16.20
2016,08,17,00,36,16.20
2016,08,17,00,37,16.20
2016,08,17,00,38,16.20
2016,08,17,00,39,16.20
2016,08,17,00,40,16.20
2016,08,17,00,41,16.20
2016,08,17,00,42,16.20
2016,08,17,00,43,16.10
2016,08,17,00,44,16.10
2016,08,17,00,45,16.00
2016,08,17,00,46,16.00
2016,08,17,00,47,15.90
2016,08,17,00,48,15.90
2016,08,17,00,49,15.80
2016,08,17,00,50,15.80
2016,08,17,00,51,15.80
2016,08,17,00,52,15.80
2016,08,17,00,53,15.70
2016,08,17,00,54,15.60
2016,08,17,00,55,15.50
2016,08,17,00,56,15.40
2016,08,17,00,57,15.30
2016,08,17,00,58,15.20
2016,08,17,00,59,15.10
2016,08,17,01,00,15.10
2016,08,17,01,01,15.00
2016,08,17,01,02,14.90
2016,08,17,01,03,14.80
2016,08,17,01,04,14.70
2016,08,17,01,05,14.60
2016,08,17,01,06,14.60
2016,08,17,01,07,14.60
2016,08,17,01,08,14.50
2016,08,17,01,09,14.40
2016,08,17,01,10,14.40
2016,08,17,01,11,14.30
2016,08,17,01,12,14.30
2016,08,17,01,13,14.30
2016,08,17,01,14,14.30
2016,08,17,01,15,14.20
2016,08,17,01,16,14.20
2016,08,17,01,17,14.20
2016,08,17,01,18,14.20
2016,08,17,01,19,14.20
2016,08,17,01,20,14.10
2016,08,17,01,21,14.10
2016,08,17,01,22,14.10
2016,08,17,01,23,14.10
2016,08,17,01,24,14.10
2016,08,17,01,25,14.10
2016,08,17,01,26,14.10
2016,08,17,01,27,14.00
2016,08,17,01,28,14.00
2016,08,17,01,29,14.00
2016,08,17,01,30,14.00
2016,08,17,01,31,14.10
2016,08,17,01,32,14.10
2016,08,17,01,33,14.10
2016,08,17,01,34,14.20
2016,08,17,01,35,14.20
2016,08,17,01,36,14.20
2016,08,17,01,37,14.20
2016,08,17,01,38,14.20
2016,08,17,01,39,14.20
2016,08,17,01,40,14.20
2016,08,17,01,41,14.20
2016,08,17,01,42,14.20
2016,08,17,01,43,14.20
2016,08,17,01,44,14.20
2016,08,17,01,45,14.20
2016,08,17,01,46,14.20
2016,08,17,01,47,14.30
2016,08,17,01,48,14.30
2016,08,17,01,49,14.30
2016,08,17,01,50,14.30
2016,08,17,01,51,14.40
2016,08,17,01,52,14.40
2016,08,17,01,53,14.30
2016,08,17,01,54,14.30
2016,08,17,01,55,14.30
2016,08,17,01,56,14.30
2016,08,17,01,57,14.30
2016,08,17,01,58,14.30
2016,08,17,01,59,14.30
2016,08,17,02,00,14.30
2016,08,17,02,01,14.30
2016,08,17,02,02,14.30
2016,08,17,02,03,14.30
2016,08,17,02,04,14.30
2016,08,17,02,05,14.30
2016,08,17,02,06,14.30
2016,08,17,02,07,14.30
2016,08,17,02,08,14.20
2016,08,17,02,09,14.20
2016,08,17,02,10,14.30
2016,08,17,02,11,14.30
2016,08,17,02,12,14.30
2016,08,17,02,13,14.30
2016,08,17,02,14,14.30
2016,08,17,02,15,14.30
2016,08,17,02,16,14.30
2016,08,17,02,17,14.40
2016,08,17,02,18,14.40
2016,08,17,02,19,14.40
2016,08,17,02,20,14.40
2016,08,17,02,21,14.40
2016,08,17,02,22,14.40
2016,08,17,02,23,14.40
2016,08,17,02,24,14.40
2016,08,17,02,25,14.40
2016,08,17,02,26,14.40
2016,08,17,02,27,14.40
2016,08,17,02,28,14.40
2016,08,17,02,29,14.40
2016,08,17,02,30,14.40
2016,08,17,02,31,14.50
2016,08,17,02,32,14.50
2016,08,17,02,33,14.50
2016,08,17,02,34,14.50
2016,08,17,02,35,14.50
2016,08,17,02,36,14.50
2016,08,17,02,37,14.40
2016,08,17,02,38,14.40
2016,08,17,02,39,14.40
2016,08,17,02,40,14.40
2016,08,17,02,41,14.40
2016,08,17,02,42,14.30
2016,08,17,02,43,14.30
2016,08,17,02,44,14.30
2016,08,17,02,45,14.30
2016,08,17,02,46,14.20
2016,08,17,02,47,14.20
2016,08,17,02,48,14.20
2016,08,17,02,49,14.20
2016,08,17,02,50,14.20
2016,08,17,02,51,14.20
2016,08,17,02,52,14.20
2016,08,17,02,53,14.10
2016,08,17,02,54,14.10
2016,08,17,02,55,14.10
2016,08,17,02,56,14.10
2016,08,17,02,57,14.10
2016,08,17,02,58,14.10
2016,08,17,02,59,14.10
2016,08,17,03,00,14.10
2016,08,17,03,01,14.10
2016,08,17,03,02,14.10
2016,08,17,03,03,14.10
2016,08,17,03,04,14.10
2016,08,17,03,05,14.10
2016,08,17,03,06,14.00
2016,08,17,03,07,14.10
2016,08,17,03,08,14.10
2016,08,17,03,09,14.00
2016,08,17,03,10,14.00
2016,08,17,03,11,14.00
2016,08,17,03,12,14.00
2016,08,17,03,13,14.00
2016,08,17,03,14,14.00
2016,08,17,03,15,14.00
2016,08,17,03,16,14.00
2016,08,17,03,17,14.00
2016,08,17,03,18,14.00
2016,08,17,03,19,14.00
2016,08,17,03,20,14.00
2016,08,17,03,21,14.00
2016,08,17,03,22,14.00
2016,08,17,03,23,14.00
2016,08,17,03,24,14.00
